| time (UTC) | temp C | wind direction | speed KPH | gust KPH | rain 1hr cm | rain 24hr cm | rain mn cm | humidity % | barometer mb |
| 20260509135346 | 10 | 0 | 0.0 | 0.0 | 0.10 | 0.00 | 0.41 | 96 | 1011.9 |
| 20260509134846 | 10 | 0 | 0.0 | 0.0 | 0.05 | 0.00 | 0.38 | 96 | 1011.7 |
| 20260509134345 | 10 | 0 | 0.0 | 0.0 | 0.10 | 0.00 | 0.36 | 96 | 1011.6 |
| 20260509133845 | 10 | 0 | 0.0 | 0.0 | 0.13 | 0.00 | 0.36 | 96 | 1011.6 |
| 20260509133346 | 10 | 0 | 0.0 | 0.0 | 0.18 | 0.00 | 0.33 | 96 | 1011.6 |
| 20260509132846 | 10 | 207 | 0.0 | 0.0 | 0.15 | 0.00 | 0.33 | 95 | 1011.6 |
| 20260509132346 | 10 | 0 | 0.0 | 0.0 | 0.58 | 0.00 | 0.36 | 95 | 1011.7 |
| 20260509131845 | 10 | 0 | 0.0 | 0.0 | 0.30 | 0.00 | 0.30 | 95 | 1011.7 |
| 20260509131345 | 10 | 228 | 0.0 | 1.6 | 0.18 | 0.00 | 0.28 | 95 | 1011.8 |
| 20260509130846 | 10 | 256 | 3.2 | 3.2 | 0.20 | 0.00 | 0.25 | 94 | 1011.8 |
| 20260509130346 | 10 | 0 | 0.0 | 0.0 | 0.15 | 0.00 | 0.23 | 93 | 1011.6 |
| 20260509125846 | 10 | 0 | 0.0 | 0.0 | 0.08 | 0.00 | 0.20 | 94 | 1011.7 |
| 20260509125346 | 10 | 0 | 0.0 | 0.0 | 0.23 | 0.00 | 0.20 | 94 | 1011.6 |
| 20260509124845 | 10 | 0 | 0.0 | 0.0 | 0.18 | 0.00 | 0.18 | 93 | 1011.6 |
| 20260509124345 | 10 | 0 | 0.0 | 0.0 | 0.48 | 0.00 | 0.18 | 93 | 1011.6 |
| 20260509123845 | 10 | 0 | 0.0 | 0.0 | 0.18 | 0.00 | 0.15 | 93 | 1011.7 |
| 20260509123346 | 10 | 269 | 1.6 | 3.2 | 0.05 | 0.00 | 0.10 | 93 | 1011.7 |
| 20260509122845 | 10 | 0 | 0.0 | 0.0 | 0.03 | 0.00 | 0.10 | 93 | 1011.7 |
| 20260509122346 | 10 | 0 | 0.0 | 0.0 | 0.05 | 0.00 | 0.10 | 93 | 1011.7 |
| 20260509121846 | 10 | 0 | 0.0 | 0.0 | 0.03 | 0.00 | 0.08 | 93 | 1011.7 |
| 20260509121345 | 10 | 0 | 0.0 | 0.0 | 0.00 | 0.00 | 0.08 | 93 | 1011.7 |
| 20260509120845 | 10 | 0 | 0.0 | 0.0 | 0.00 | 0.00 | 0.08 | 92 | 1011.7 |
| 20260509120346 | 10 | 0 | 0.0 | 0.0 | 0.00 | 0.00 | 0.08 | 93 | 1011.7 |
| 20260509115846 | 9 | 0 | 0.0 | 0.0 | 0.00 | 0.00 | 0.08 | 93 | 1011.8 |
| 20260509115345 | 9 | 0 | 0.0 | 0.0 | 0.00 | 0.00 | 0.08 | 92 | 1011.9 |
| 20260509114848 | 9 | 238 | 3.2 | 3.2 | 0.03 | 0.00 | 0.08 | 92 | 1012.0 |
| 20260509114345 | 9 | 160 | 0.0 | 1.6 | 0.08 | 0.00 | 0.05 | 92 | 1011.9 |
| 20260509113845 | 9 | 0 | 0.0 | 0.0 | 0.03 | 0.00 | 0.05 | 93 | 1011.9 |
| 20260509113346 | 9 | 0 | 0.0 | 0.0 | 0.00 | 0.00 | 0.05 | 92 | 1011.8 |
| 20260509112845 | 9 | 0 | 0.0 | 0.0 | 0.00 | 0.00 | 0.05 | 92 | 1011.9 |
| 20260509112345 | 9 | 0 | 0.0 | 0.0 | 0.00 | 0.00 | 0.05 | 92 | 1011.8 |
| 20260509111845 | 9 | 226 | 0.0 | 3.2 | 0.00 | 0.00 | 0.05 | 92 | 1011.8 |
| 20260509111346 | 9 | 0 | 0.0 | 0.0 | 0.00 | 0.00 | 0.05 | 92 | 1011.6 |
| 20260509110846 | 9 | 0 | 0.0 | 0.0 | 0.00 | 0.00 | 0.05 | 92 | 1011.6 |
| 20260509110346 | 9 | 0 | 0.0 | 0.0 | 0.00 | 0.00 | 0.05 | 92 | 1011.6 |
| 20260509105846 | 9 | 0 | 0.0 | 0.0 | 0.00 | 0.00 | 0.05 | 91 | 1011.5 |
| 20260509105346 | 9 | 0 | 0.0 | 0.0 | 0.00 | 0.00 | 0.05 | 91 | 1011.4 |
| 20260509104845 | 9 | 198 | 0.0 | 1.6 | 0.00 | 0.00 | 0.05 | 90 | 1011.3 |
| 20260509104345 | 9 | 0 | 0.0 | 0.0 | 0.00 | 0.00 | 0.05 | 90 | 1011.2 |
| 20260509103845 | 9 | 0 | 0.0 | 0.0 | 0.00 | 0.00 | 0.05 | 90 | 1011.1 |
| 20260509103349 | 9 | 0 | 0.0 | 0.0 | 0.00 | 0.00 | 0.03 | 89 | 1011.1 |
| 20260509102845 | 9 | 325 | 0.0 | 3.2 | 0.03 | 0.00 | 0.03 | 88 | 1011.1 |
| 20260509102346 | 9 | 325 | 1.6 | 3.2 | 0.03 | 0.00 | 0.00 | 87 | 1011.2 |
| 20260509101845 | 9 | 308 | 0.0 | 0.0 | 0.08 | 0.00 | 0.00 | 87 | 1011.1 |
| 20260509101346 | 9 | 0 | 0.0 | 0.0 | 0.00 | 0.00 | 0.00 | 85 | 1010.9 |
| 20260509100846 | 9 | 0 | 0.0 | 0.0 | 0.00 | 0.00 | 0.00 | 86 | 1010.9 |
| 20260509100346 | 9 | 301 | 0.0 | 1.6 | 0.00 | 0.00 | 0.00 | 86 | 1010.9 |
| 20260509095845 | 9 | 0 | 0.0 | 0.0 | 0.00 | 0.00 | 0.00 | 85 | 1010.9 |
| 20260509095345 | 9 | 0 | 0.0 | 0.0 | 0.00 | 0.00 | 0.00 | 84 | 1010.7 |
| 20260509094846 | 9 | 0 | 0.0 | 0.0 | 0.00 | 0.00 | 0.00 | 84 | 1010.7 |
| 20260509094346 | 9 | 0 | 0.0 | 0.0 | 0.00 | 0.00 | 0.00 | 85 | 1010.7 |
| 20260509093845 | 9 | 0 | 0.0 | 0.0 | 0.00 | 0.00 | 0.00 | 82 | 1010.7 |
| 20260509093345 | 9 | 0 | 0.0 | 0.0 | 0.00 | 0.00 | 0.00 | 83 | 1010.7 |
| 20260509092846 | 9 | 0 | 0.0 | 0.0 | 0.00 | 0.00 | 0.00 | 82 | 1010.7 |
| 20260509092345 | 9 | 0 | 0.0 | 0.0 | 0.00 | 0.00 | 0.00 | 83 | 1010.7 |
| 20260509091845 | 9 | 0 | 0.0 | 0.0 | 0.00 | 0.00 | 0.00 | 82 | 1010.7 |
| 20260509091345 | 9 | 0 | 0.0 | 0.0 | 0.00 | 0.00 | 0.00 | 82 | 1010.7 |
| 20260509090846 | 9 | 335 | 0.0 | 1.6 | 0.00 | 0.00 | 0.00 | 82 | 1010.6 |
| 20260509090345 | 9 | 0 | 0.0 | 0.0 | 0.00 | 0.00 | 0.00 | 81 | 1010.7 |
| 20260509085846 | 9 | 0 | 0.0 | 0.0 | 0.00 | 0.00 | 0.00 | 82 | 1010.7 |
| 20260509085345 | 9 | 0 | 0.0 | 0.0 | 0.00 | 0.00 | 0.00 | 82 | 1010.7 |
| 20260509084846 | 10 | 291 | 0.0 | 1.6 | 0.00 | 0.00 | 0.00 | 80 | 1010.7 |
| 20260509084347 | 10 | 0 | 0.0 | 0.0 | 0.00 | 0.00 | 0.00 | 81 | 1010.9 |
| 20260509083845 | 10 | 0 | 0.0 | 0.0 | 0.00 | 0.00 | 0.00 | 81 | 1010.9 |
| 20260509083346 | 10 | 280 | 0.0 | 1.6 | 0.00 | 0.00 | 0.00 | 78 | 1010.7 |
| 20260509082845 | 10 | 0 | 0.0 | 0.0 | 0.00 | 0.00 | 0.00 | 80 | 1010.7 |
| 20260509082346 | 10 | 0 | 0.0 | 0.0 | 0.00 | 0.00 | 0.00 | 78 | 1010.7 |
| 20260509081845 | 10 | 266 | 0.0 | 1.6 | 0.00 | 0.00 | 0.00 | 79 | 1010.7 |
| 20260509081345 | 10 | 0 | 0.0 | 0.0 | 0.00 | 0.00 | 0.00 | 77 | 1010.9 |
| 20260509080845 | 10 | 0 | 0.0 | 0.0 | 0.00 | 0.00 | 0.00 | 76 | 1011.0 |
| 20260509080345 | 10 | 0 | 0.0 | 0.0 | 0.00 | 0.00 | 0.00 | 76 | 1011.0 |
| 20260509075845 | 10 | 321 | 0.0 | 1.6 | 0.00 | 0.00 | 0.00 | 77 | 1011.0 |
| 20260509075345 | 10 | 0 | 0.0 | 0.0 | 0.00 | 0.00 | 0.00 | 76 | 1010.9 |
| 20260509074845 | 10 | 0 | 0.0 | 0.0 | 0.00 | 0.00 | 0.00 | 76 | 1011.0 |
| 20260509074345 | 10 | 313 | 0.0 | 1.6 | 0.00 | 0.00 | 0.00 | 75 | 1011.1 |
| 20260509073845 | 10 | 0 | 0.0 | 0.0 | 0.00 | 0.00 | 0.00 | 76 | 1011.0 |
| 20260509073345 | 10 | 0 | 0.0 | 0.0 | 0.00 | 0.00 | 0.00 | 76 | 1011.1 |
| 20260509072845 | 10 | 287 | 0.0 | 1.6 | 0.00 | 0.00 | 0.00 | 76 | 1011.1 |
| 20260509072345 | 10 | 346 | 0.0 | 0.0 | 0.00 | 0.00 | 0.00 | 77 | 1011.2 |
| 20260509071845 | 10 | 304 | 0.0 | 0.0 | 0.00 | 0.00 | 0.00 | 79 | 1011.2 |
| 20260509071345 | 10 | 329 | 0.0 | 3.2 | 0.00 | 0.00 | 0.00 | 77 | 1011.1 |
| 20260509070852 | 10 | 0 | 0.0 | 0.0 | 0.00 | 0.00 | 0.00 | 78 | 1011.0 |
| 20260509070346 | 10 | 304 | 0.0 | 1.6 | 0.00 | 0.00 | 0.00 | 78 | 1011.1 |
| 20260509065845 | 10 | 313 | 0.0 | 1.6 | 0.00 | 0.00 | 0.00 | 76 | 1011.1 |
| 20260509065346 | 10 | 0 | 0.0 | 0.0 | 0.00 | 0.00 | 0.00 | 77 | 1011.0 |
| 20260509064846 | 10 | 0 | 0.0 | 0.0 | 0.00 | 0.00 | 0.00 | 76 | 1011.1 |
| 20260509064346 | 10 | 0 | 0.0 | 0.0 | 0.00 | 0.00 | 0.00 | 74 | 1011.0 |
| 20260509063845 | 10 | 314 | 0.0 | 1.6 | 0.00 | 0.00 | 0.00 | 77 | 1011.2 |
| 20260509063348 | 10 | 266 | 0.0 | 1.6 | 0.00 | 0.00 | 0.00 | 76 | 1011.2 |
| 20260509062845 | 10 | 287 | 0.0 | 1.6 | 0.00 | 0.00 | 0.00 | 79 | 1011.2 |
| 20260509062348 | 10 | 0 | 0.0 | 0.0 | 0.00 | 0.00 | 0.00 | 77 | 1011.2 |
| 20260509061846 | 10 | 200 | 0.0 | 1.6 | 0.00 | 0.00 | 0.00 | 79 | 1011.2 |
| 20260509061346 | 10 | 0 | 0.0 | 0.0 | 0.00 | 0.00 | 0.00 | 78 | 1011.2 |
| 20260509060846 | 10 | 0 | 0.0 | 0.0 | 0.00 | 0.00 | 0.00 | 79 | 1011.2 |
| 20260509060346 | 10 | 0 | 0.0 | 0.0 | 0.00 | 0.00 | 0.00 | 76 | 1011.2 |
| 20260509055845 | 10 | 26 | 0.0 | 1.6 | 0.00 | 0.00 | 0.00 | 79 | 1011.1 |
| 20260509055346 | 10 | 0 | 0.0 | 0.0 | 0.00 | 0.00 | 0.00 | 77 | 1011.1 |
| 20260509054846 | 10 | 0 | 0.0 | 0.0 | 0.00 | 0.00 | 0.00 | 77 | 1011.2 |
| 20260509054345 | 10 | 0 | 0.0 | 0.0 | 0.00 | 0.00 | 0.00 | 76 | 1011.2 |
| 20260509053845 | 10 | 0 | 0.0 | 0.0 | 0.00 | 0.00 | 0.00 | 76 | 1011.3 |
| 20260509053345 | 10 | 0 | 0.0 | 0.0 | 0.00 | 0.00 | 0.00 | 76 | 1011.3 |
| 20260509052846 | 10 | 0 | 0.0 | 0.0 | 0.00 | 0.00 | 0.00 | 76 | 1011.4 |
| 20260509052346 | 10 | 0 | 0.0 | 0.0 | 0.00 | 0.00 | 0.00 | 75 | 1011.3 |
| 20260509051846 | 10 | 0 | 0.0 | 0.0 | 0.00 | 0.00 | 0.00 | 77 | 1011.4 |
| 20260509051346 | 10 | 339 | 0.0 | 1.6 | 0.00 | 0.00 | 0.00 | 79 | 1011.5 |
| 20260509050845 | 10 | 0 | 0.0 | 0.0 | 0.00 | 0.00 | 0.00 | 79 | 1011.5 |
| 20260509050345 | 10 | 0 | 0.0 | 0.0 | 0.00 | 0.00 | 0.00 | 80 | 1011.5 |
| 20260509045845 | 10 | 0 | 0.0 | 0.0 | 0.00 | 0.00 | 0.00 | 80 | 1011.5 |
| 20260509045345 | 10 | 0 | 0.0 | 0.0 | 0.00 | 0.00 | 0.00 | 79 | 1011.5 |
| 20260509044846 | 10 | 0 | 0.0 | 0.0 | 0.00 | 0.00 | 0.00 | 77 | 1011.5 |
| 20260509044346 | 10 | 0 | 0.0 | 0.0 | 0.00 | 0.00 | 0.00 | 77 | 1011.5 |
| 20260509043846 | 10 | 0 | 0.0 | 0.0 | 0.00 | 0.00 | 0.00 | 78 | 1011.5 |
| 20260509043345 | 10 | 0 | 0.0 | 0.0 | 0.00 | 0.00 | 0.00 | 77 | 1011.5 |
| 20260509042845 | 10 | 0 | 0.0 | 0.0 | 0.00 | 0.00 | 0.00 | 76 | 1011.5 |
| 20260509042346 | 10 | 0 | 0.0 | 0.0 | 0.00 | 0.00 | 0.00 | 77 | 1011.5 |
| 20260509041845 | 10 | 0 | 0.0 | 0.0 | 0.00 | 0.00 | 0.00 | 77 | 1011.5 |
| 20260509041345 | 11 | 0 | 0.0 | 0.0 | 0.00 | 0.00 | 0.00 | 77 | 1011.4 |
| 20260509040845 | 11 | 0 | 0.0 | 0.0 | 0.00 | 0.00 | 0.00 | 76 | 1011.4 |
| 20260509040346 | 11 | 0 | 0.0 | 0.0 | 0.00 | 0.00 | 0.00 | 75 | 1011.4 |
| 20260509035845 | 10 | 0 | 0.0 | 0.0 | 0.00 | 0.00 | 0.00 | 76 | 1011.5 |
| 20260509035345 | 11 | 0 | 0.0 | 0.0 | 0.00 | 0.00 | 0.00 | 76 | 1011.6 |
| 20260509034846 | 11 | 0 | 0.0 | 0.0 | 0.00 | 0.00 | 0.00 | 76 | 1011.5 |
| 20260509034347 | 11 | 0 | 0.0 | 0.0 | 0.00 | 0.00 | 0.00 | 75 | 1011.5 |
| 20260509033847 | 11 | 0 | 0.0 | 0.0 | 0.00 | 0.00 | 0.00 | 76 | 1011.5 |
| 20260509033345 | 11 | 0 | 0.0 | 0.0 | 0.00 | 0.00 | 0.00 | 75 | 1011.6 |
| 20260509032846 | 11 | 292 | 0.0 | 1.6 | 0.00 | 0.00 | 0.00 | 77 | 1011.7 |
| 20260509032345 | 11 | 0 | 0.0 | 0.0 | 0.00 | 0.00 | 0.00 | 77 | 1011.7 |
| 20260509031845 | 11 | 0 | 0.0 | 0.0 | 0.00 | 0.00 | 0.00 | 76 | 1011.8 |
| 20260509031345 | 11 | 0 | 0.0 | 0.0 | 0.00 | 0.00 | 0.00 | 75 | 1011.8 |
| 20260509030845 | 11 | 0 | 0.0 | 0.0 | 0.00 | 0.00 | 0.00 | 75 | 1011.8 |
| 20260509030345 | 11 | 0 | 0.0 | 0.0 | 0.00 | 0.00 | 0.00 | 75 | 1011.9 |
| 20260509025845 | 11 | 0 | 0.0 | 0.0 | 0.00 | 0.00 | 0.00 | 74 | 1011.9 |
| 20260509025345 | 11 | 340 | 0.0 | 0.0 | 0.00 | 0.00 | 0.00 | 73 | 1012.0 |
| 20260509024846 | 11 | 0 | 0.0 | 0.0 | 0.00 | 0.00 | 0.00 | 72 | 1012.1 |
| 20260509024345 | 11 | 0 | 0.0 | 0.0 | 0.00 | 0.00 | 0.00 | 73 | 1012.1 |
| 20260509023845 | 11 | 0 | 0.0 | 0.0 | 0.00 | 0.00 | 0.00 | 72 | 1012.1 |
| 20260509023346 | 11 | 0 | 0.0 | 0.0 | 0.00 | 0.00 | 0.00 | 74 | 1012.2 |
| 20260509022846 | 11 | 0 | 0.0 | 0.0 | 0.00 | 0.00 | 0.00 | 74 | 1012.1 |
| 20260509022346 | 11 | 0 | 0.0 | 0.0 | 0.00 | 0.00 | 0.00 | 73 | 1012.0 |
| 20260509021845 | 11 | 0 | 0.0 | 0.0 | 0.00 | 0.00 | 0.00 | 71 | 1012.1 |
| 20260509021345 | 11 | 0 | 0.0 | 0.0 | 0.00 | 0.00 | 0.00 | 73 | 1012.1 |
| 20260509020845 | 11 | 339 | 0.0 | 1.6 | 0.00 | 0.00 | 0.00 | 72 | 1012.1 |
| 20260509020345 | 11 | 0 | 0.0 | 0.0 | 0.00 | 0.00 | 0.00 | 72 | 1012.0 |
| 20260509015846 | 11 | 0 | 0.0 | 0.0 | 0.00 | 0.00 | 0.00 | 68 | 1012.0 |
| 20260509015345 | 11 | 0 | 0.0 | 0.0 | 0.00 | 0.00 | 0.00 | 72 | 1012.1 |
| 20260509014845 | 11 | 0 | 0.0 | 0.0 | 0.00 | 0.00 | 0.00 | 73 | 1012.1 |
| 20260509014346 | 11 | 0 | 0.0 | 0.0 | 0.00 | 0.00 | 0.00 | 68 | 1012.0 |
| 20260509013846 | 11 | 0 | 0.0 | 0.0 | 0.00 | 0.00 | 0.00 | 69 | 1011.9 |
| 20260509013346 | 11 | 0 | 0.0 | 0.0 | 0.00 | 0.00 | 0.00 | 71 | 1011.8 |
| 20260509012846 | 11 | 0 | 0.0 | 0.0 | 0.00 | 0.00 | 0.00 | 71 | 1011.7 |
| 20260509012346 | 11 | 0 | 0.0 | 0.0 | 0.00 | 0.00 | 0.00 | 71 | 1011.7 |
| 20260509011846 | 12 | 0 | 0.0 | 0.0 | 0.00 | 0.00 | 0.00 | 71 | 1011.7 |
| 20260509011345 | 11 | 194 | 0.0 | 3.2 | 0.00 | 0.00 | 0.00 | 69 | 1011.7 |
| 20260509010846 | 11 | 0 | 0.0 | 0.0 | 0.00 | 0.00 | 0.00 | 70 | 1011.7 |
| 20260509010346 | 12 | 0 | 0.0 | 0.0 | 0.00 | 0.00 | 0.00 | 71 | 1011.6 |
| 20260509005846 | 12 | 0 | 0.0 | 0.0 | 0.00 | 0.00 | 0.00 | 69 | 1011.6 |
| 20260509005345 | 12 | 0 | 0.0 | 0.0 | 0.00 | 0.00 | 0.00 | 70 | 1011.7 |
| 20260509004846 | 12 | 340 | 0.0 | 0.0 | 0.00 | 0.00 | 0.00 | 70 | 1011.6 |
| 20260509004345 | 12 | 0 | 0.0 | 0.0 | 0.00 | 0.00 | 0.00 | 70 | 1011.6 |
| 20260509003845 | 12 | 0 | 0.0 | 0.0 | 0.00 | 0.00 | 0.00 | 70 | 1011.5 |
| 20260509003345 | 12 | 0 | 0.0 | 0.0 | 0.00 | 0.00 | 0.00 | 68 | 1011.4 |
| 20260509002846 | 12 | 0 | 0.0 | 0.0 | 0.00 | 0.00 | 0.00 | 67 | 1011.4 |
| 20260509002346 | 12 | 0 | 0.0 | 0.0 | 0.00 | 0.00 | 0.00 | 67 | 1011.4 |
| 20260509001846 | 12 | 0 | 0.0 | 0.0 | 0.00 | 0.00 | 0.00 | 67 | 1011.4 |
| 20260509001346 | 12 | 0 | 0.0 | 0.0 | 0.00 | 0.00 | 0.00 | 67 | 1011.4 |
| 20260509000846 | 13 | 0 | 0.0 | 0.0 | 0.00 | 0.00 | 0.00 | 65 | 1011.4 |
| 20260509000347 | 13 | 0 | 0.0 | 0.0 | 0.00 | 0.00 | 0.00 | 64 | 1011.4 |
| 20260508235845 | 14 | 0 | 0.0 | 0.0 | 0.00 | 0.00 | 0.00 | 62 | 1011.4 |
| 20260508235346 | 14 | 0 | 0.0 | 0.0 | 0.00 | 0.00 | 0.00 | 59 | 1011.4 |
| 20260508234847 | 15 | 280 | 0.0 | 1.6 | 0.00 | 0.00 | 0.00 | 58 | 1011.4 |
| 20260508234346 | 15 | 0 | 0.0 | 0.0 | 0.00 | 0.00 | 0.00 | 56 | 1011.3 |
| 20260508233845 | 16 | 0 | 0.0 | 0.0 | 0.00 | 0.00 | 0.00 | 54 | 1011.3 |
| 20260508233345 | 17 | 0 | 0.0 | 0.0 | 0.00 | 0.00 | 0.00 | 55 | 1011.2 |
| 20260508232846 | 18 | 0 | 0.0 | 0.0 | 0.00 | 0.00 | 0.00 | 53 | 1011.2 |
| 20260508232346 | 18 | 339 | 0.0 | 1.6 | 0.00 | 0.00 | 0.00 | 50 | 1011.2 |
| 20260508231845 | 19 | 315 | 0.0 | 3.2 | 0.00 | 0.00 | 0.00 | 46 | 1011.1 |
| 20260508231346 | 20 | 329 | 0.0 | 0.0 | 0.00 | 0.00 | 0.00 | 46 | 1011.0 |
| 20260508230846 | 20 | 323 | 0.0 | 3.2 | 0.00 | 0.00 | 0.00 | 43 | 1011.1 |
| 20260508230346 | 20 | 0 | 0.0 | 0.0 | 0.00 | 0.00 | 0.00 | 42 | 1011.1 |
| 20260508225845 | 20 | 328 | 1.6 | 3.2 | 0.00 | 0.00 | 0.00 | 42 | 1011.1 |
| 20260508225345 | 20 | 261 | 1.6 | 3.2 | 0.00 | 0.00 | 0.00 | 43 | 1011.1 |
| 20260508224845 | 20 | 314 | 0.0 | 3.2 | 0.00 | 0.00 | 0.00 | 41 | 1011.1 |
| 20260508224345 | 19 | 0 | 0.0 | 0.0 | 0.00 | 0.00 | 0.00 | 40 | 1011.2 |
| 20260508223845 | 19 | 0 | 0.0 | 0.0 | 0.00 | 0.00 | 0.00 | 42 | 1011.3 |
| 20260508223346 | 19 | 274 | 1.6 | 3.2 | 0.00 | 0.00 | 0.00 | 42 | 1011.3 |
| 20260508222845 | 19 | 279 | 1.6 | 3.2 | 0.00 | 0.00 | 0.00 | 42 | 1011.3 |
| 20260508222345 | 19 | 268 | 3.2 | 4.8 | 0.00 | 0.00 | 0.00 | 42 | 1011.4 |
| 20260508221846 | 18 | 293 | 1.6 | 6.4 | 0.00 | 0.00 | 0.00 | 41 | 1011.3 |
| 20260508221346 | 18 | 0 | 0.0 | 0.0 | 0.00 | 0.00 | 0.00 | 43 | 1011.3 |
| 20260508220846 | 19 | 334 | 1.6 | 4.8 | 0.00 | 0.00 | 0.00 | 42 | 1011.4 |
| 20260508220346 | 19 | 287 | 0.0 | 3.2 | 0.00 | 0.00 | 0.00 | 41 | 1011.4 |
| 20260508215845 | 20 | 307 | 3.2 | 6.4 | 0.00 | 0.00 | 0.00 | 39 | 1011.4 |
| 20260508215346 | 18 | 297 | 1.6 | 4.8 | 0.00 | 0.00 | 0.00 | 41 | 1011.4 |
| 20260508214845 | 18 | 313 | 4.8 | 9.7 | 0.00 | 0.00 | 0.00 | 42 | 1011.5 |
| 20260508214346 | 18 | 273 | 3.2 | 4.8 | 0.00 | 0.00 | 0.00 | 44 | 1011.5 |
| 20260508213845 | 18 | 320 | 4.8 | 6.4 | 0.00 | 0.00 | 0.00 | 42 | 1011.5 |
| 20260508213346 | 18 | 341 | 3.2 | 8.0 | 0.00 | 0.00 | 0.00 | 42 | 1011.5 |
| 20260508212845 | 18 | 262 | 3.2 | 6.4 | 0.00 | 0.00 | 0.00 | 42 | 1011.5 |
| 20260508212346 | 18 | 253 | 4.8 | 9.7 | 0.00 | 0.00 | 0.00 | 43 | 1011.5 |
| 20260508211846 | 18 | 277 | 1.6 | 4.8 | 0.00 | 0.00 | 0.00 | 42 | 1011.5 |
| 20260508211346 | 18 | 284 | 1.6 | 4.8 | 0.00 | 0.00 | 0.00 | 44 | 1011.6 |
| 20260508210845 | 18 | 286 | 3.2 | 4.8 | 0.00 | 0.00 | 0.00 | 42 | 1011.6 |
| 20260508210346 | 18 | 1 | 3.2 | 8.0 | 0.00 | 0.00 | 0.00 | 41 | 1011.6 |
| 20260508205846 | 18 | 330 | 3.2 | 6.4 | 0.00 | 0.00 | 0.00 | 41 | 1011.6 |
| 20260508205345 | 18 | 332 | 3.2 | 6.4 | 0.00 | 0.00 | 0.00 | 42 | 1011.6 |
| 20260508204846 | 18 | 277 | 1.6 | 4.8 | 0.00 | 0.00 | 0.00 | 42 | 1011.7 |
| 20260508204345 | 17 | 310 | 4.8 | 14.5 | 0.00 | 0.00 | 0.00 | 42 | 1011.7 |
| 20260508203845 | 17 | 268 | 3.2 | 8.0 | 0.00 | 0.00 | 0.00 | 41 | 1011.7 |
| 20260508203345 | 18 | 324 | 3.2 | 6.4 | 0.00 | 0.00 | 0.00 | 41 | 1011.8 |
| 20260508202846 | 17 | 306 | 4.8 | 8.0 | 0.00 | 0.00 | 0.00 | 41 | 1011.8 |
| 20260508202346 | 17 | 283 | 4.8 | 8.0 | 0.00 | 0.00 | 0.00 | 40 | 1011.9 |
| 20260508201846 | 17 | 289 | 3.2 | 6.4 | 0.00 | 0.00 | 0.00 | 40 | 1011.9 |
| 20260508201345 | 17 | 293 | 4.8 | 8.0 | 0.00 | 0.00 | 0.00 | 42 | 1012.0 |
| 20260508200845 | 17 | 301 | 6.4 | 8.0 | 0.00 | 0.00 | 0.00 | 40 | 1012.0 |
| 20260508200346 | 18 | 308 | 4.8 | 11.3 | 0.00 | 0.00 | 0.00 | 40 | 1012.0 |
| 20260508195846 | 18 | 335 | 3.2 | 9.7 | 0.00 | 0.00 | 0.00 | 40 | 1012.0 |
| 20260508195345 | 18 | 240 | 4.8 | 14.5 | 0.00 | 0.00 | 0.00 | 39 | 1011.9 |
| 20260508194845 | 18 | 291 | 3.2 | 6.4 | 0.00 | 0.00 | 0.00 | 41 | 1012.0 |
| 20260508194345 | 18 | 264 | 0.0 | 3.2 | 0.00 | 0.00 | 0.00 | 42 | 1011.9 |
| 20260508193846 | 18 | 293 | 3.2 | 8.0 | 0.00 | 0.00 | 0.00 | 39 | 1011.9 |
| 20260508193346 | 18 | 275 | 3.2 | 6.4 | 0.00 | 0.00 | 0.00 | 39 | 1011.9 |
| 20260508192846 | 19 | 275 | 3.2 | 6.4 | 0.00 | 0.00 | 0.00 | 38 | 1011.9 |
| 20260508192346 | 18 | 306 | 4.8 | 11.3 | 0.00 | 0.00 | 0.00 | 38 | 1011.9 |
| 20260508191845 | 19 | 214 | 6.4 | 14.5 | 0.00 | 0.00 | 0.00 | 38 | 1011.8 |
| 20260508191345 | 18 | 321 | 1.6 | 3.2 | 0.00 | 0.00 | 0.00 | 38 | 1012.0 |
| 20260508190846 | 18 | 228 | 6.4 | 14.5 | 0.00 | 0.00 | 0.00 | 37 | 1012.1 |
| 20260508190346 | 18 | 256 | 3.2 | 6.4 | 0.00 | 0.00 | 0.00 | 40 | 1012.2 |
| 20260508185845 | 18 | 283 | 3.2 | 6.4 | 0.00 | 0.00 | 0.00 | 37 | 1012.2 |
| 20260508185346 | 18 | 287 | 1.6 | 4.8 | 0.00 | 0.00 | 0.00 | 38 | 1012.3 |
| 20260508184846 | 18 | 246 | 6.4 | 12.9 | 0.00 | 0.00 | 0.00 | 37 | 1012.3 |
| 20260508184346 | 18 | 290 | 3.2 | 6.4 | 0.00 | 0.00 | 0.00 | 38 | 1012.3 |
| 20260508183845 | 18 | 291 | 3.2 | 6.4 | 0.00 | 0.00 | 0.00 | 38 | 1012.4 |
| 20260508183346 | 18 | 270 | 6.4 | 11.3 | 0.00 | 0.00 | 0.00 | 36 | 1012.4 |
| 20260508182845 | 18 | 294 | 4.8 | 9.7 | 0.00 | 0.00 | 0.00 | 36 | 1012.4 |
| 20260508181847 | 19 | 282 | 3.2 | 8.0 | 0.00 | 0.00 | 0.00 | 36 | 1012.4 |
| 20260508181348 | 19 | 324 | 6.4 | 11.3 | 0.00 | 0.00 | 0.00 | 36 | 1012.4 |
| 20260508180846 | 21 | 280 | 6.4 | 12.9 | 0.00 | 0.00 | 0.00 | 35 | 1012.3 |
| 20260508180346 | 21 | 314 | 6.4 | 9.7 | 0.00 | 0.00 | 0.00 | 33 | 1012.5 |
| 20260508175847 | 20 | 306 | 6.4 | 9.7 | 0.00 | 0.00 | 0.00 | 35 | 1012.3 |
| 20260508175346 | 20 | 328 | 12.9 | 19.3 | 0.00 | 0.00 | 0.00 | 34 | 1012.3 |
| 20260508174846 | 19 | 321 | 4.8 | 8.0 | 0.00 | 0.00 | 0.00 | 35 | 1012.5 |
| 20260508174347 | 20 | 314 | 6.4 | 12.9 | 0.00 | 0.00 | 0.00 | 36 | 1012.6 |
| 20260508173846 | 20 | 252 | 4.8 | 11.3 | 0.00 | 0.00 | 0.00 | 34 | 1012.5 |
| 20260508173346 | 20 | 273 | 4.8 | 9.7 | 0.00 | 0.00 | 0.00 | 35 | 1012.6 |
| 20260508172845 | 20 | 283 | 4.8 | 9.7 | 0.00 | 0.00 | 0.00 | 37 | 1012.8 |
| 20260508172346 | 20 | 291 | 6.4 | 14.5 | 0.00 | 0.00 | 0.00 | 34 | 1012.8 |
| 20260508171846 | 20 | 284 | 9.7 | 16.1 | 0.00 | 0.00 | 0.00 | 35 | 1012.8 |
| 20260508171346 | 21 | 315 | 9.7 | 12.9 | 0.00 | 0.00 | 0.00 | 32 | 1012.9 |
| 20260508170847 | 20 | 325 | 6.4 | 11.3 | 0.00 | 0.00 | 0.00 | 34 | 1012.8 |
| 20260508170346 | 20 | 252 | 9.7 | 19.3 | 0.00 | 0.00 | 0.00 | 36 | 1013.0 |
| 20260508165846 | 20 | 275 | 3.2 | 8.0 | 0.00 | 0.00 | 0.00 | 37 | 1012.9 |
| 20260508165346 | 20 | 305 | 6.4 | 11.3 | 0.00 | 0.00 | 0.00 | 37 | 1013.1 |
| 20260508164845 | 20 | 320 | 11.3 | 16.1 | 0.00 | 0.00 | 0.00 | 34 | 1013.2 |
| 20260508164346 | 20 | 277 | 6.4 | 14.5 | 0.00 | 0.00 | 0.00 | 37 | 1013.2 |
| 20260508163846 | 20 | 286 | 9.7 | 19.3 | 0.00 | 0.00 | 0.00 | 36 | 1013.2 |
| 20260508163346 | 20 | 252 | 9.7 | 17.7 | 0.00 | 0.00 | 0.00 | 36 | 1013.2 |
| 20260508162846 | 19 | 333 | 6.4 | 9.7 | 0.00 | 0.00 | 0.00 | 35 | 1013.2 |
| 20260508162346 | 19 | 58 | 3.2 | 6.4 | 0.00 | 0.00 | 0.00 | 35 | 1013.5 |
| 20260508161847 | 19 | 318 | 6.4 | 11.3 | 0.00 | 0.00 | 0.00 | 35 | 1013.3 |
| 20260508161346 | 19 | 299 | 6.4 | 9.7 | 0.00 | 0.00 | 0.00 | 37 | 1013.5 |
| 20260508160845 | 19 | 296 | 6.4 | 11.3 | 0.00 | 0.00 | 0.00 | 38 | 1013.6 |
| 20260508160346 | 18 | 313 | 4.8 | 8.0 | 0.00 | 0.00 | 0.00 | 39 | 1013.5 |
| 20260508155846 | 18 | 243 | 9.7 | 16.1 | 0.00 | 0.00 | 0.00 | 41 | 1013.6 |
| 20260508155345 | 18 | 304 | 3.2 | 6.4 | 0.00 | 0.00 | 0.00 | 41 | 1013.6 |
| 20260508154845 | 18 | 273 | 4.8 | 6.4 | 0.00 | 0.00 | 0.00 | 39 | 1013.7 |
| 20260508154348 | 18 | 285 | 8.0 | 16.1 | 0.00 | 0.00 | 0.00 | 40 | 1013.7 |
| 20260508153851 | 17 | 275 | 6.4 | 11.3 | 0.00 | 0.00 | 0.00 | 39 | 1013.8 |
| 20260508153346 | 17 | 313 | 8.0 | 14.5 | 0.00 | 0.00 | 0.00 | 40 | 1013.7 |
| 20260508152845 | 17 | 246 | 14.5 | 22.5 | 0.00 | 0.00 | 0.00 | 40 | 1013.8 |
| 20260508152347 | 17 | 344 | 6.4 | 16.1 | 0.00 | 0.00 | 0.00 | 41 | 1013.7 |
| 20260508151845 | 17 | 350 | 3.2 | 11.3 | 0.00 | 0.00 | 0.00 | 40 | 1013.9 |
| 20260508151348 | 17 | 278 | 8.0 | 12.9 | 0.00 | 0.00 | 0.00 | 40 | 1014.0 |
| 20260508150846 | 16 | 234 | 9.7 | 14.5 | 0.00 | 0.00 | 0.00 | 42 | 1013.8 |
| 20260508150348 | 17 | 244 | 11.3 | 14.5 | 0.00 | 0.00 | 0.00 | 40 | 1013.9 |
| 20260508145846 | 16 | 260 | 6.4 | 14.5 | 0.00 | 0.00 | 0.00 | 40 | 1014.0 |
| 20260508145345 | 16 | 252 | 6.4 | 12.9 | 0.00 | 0.00 | 0.00 | 42 | 1013.9 |
| 20260508144845 | 16 | 285 | 4.8 | 8.0 | 0.00 | 0.00 | 0.00 | 41 | 1013.9 |
| 20260508144346 | 16 | 228 | 8.0 | 17.7 | 0.00 | 0.00 | 0.00 | 40 | 1013.9 |
| 20260508143846 | 16 | 262 | 3.2 | 6.4 | 0.00 | 0.00 | 0.00 | 44 | 1014.1 |
| 20260508143350 | 16 | 262 | 6.4 | 14.5 | 0.00 | 0.00 | 0.00 | 44 | 1013.9 |
| 20260508142846 | 16 | 256 | 6.4 | 9.7 | 0.00 | 0.00 | 0.00 | 43 | 1014.2 |
| 20260508141904 | 15 | 242 | 8.0 | 17.7 | 0.00 | 0.00 | 0.00 | 43 | 1014.0 |
| 20260508141347 | 15 | 264 | 4.8 | 8.0 | 0.00 | 0.00 | 0.00 | 45 | 1014.2 |
| 20260508140848 | 15 | 244 | 9.7 | 24.1 | 0.00 | 0.00 | 0.00 | 44 | 1014.3 |
| 20260508140346 | 15 | 296 | 4.8 | 6.4 | 0.00 | 0.00 | 0.00 | 45 | 1014.4 |
| 20260508135845 | 14 | 256 | 6.4 | 17.7 | 0.00 | 0.00 | 0.00 | 46 | 1014.4 |